Weather History for KCBF - April, 2013

Change the Weather History Date:

Monday, April 29, 2013

  Actual Average Record
Temperature  
Mean Temperature 70 °F -  
Max Temperature 84 °F 65 °F 91 °F (2007)
Min Temperature 55 °F 47 °F 33 °F (2008)
Cooling Degree Days 4    
Growing Degree Days 20 (Base 50)    
Moisture  
Dew Point 54 °F    
Average Humidity 64    
Maximum Humidity 94    
Minimum Humidity 30    
Precipitation  
Precipitation 0.00 in - - ()
Sea Level Pressure  
Sea Level Pressure 29.66 in    
Wind  
Wind Speed 8 mph (South)    
Max Wind Speed 15 mph    
Max Gust Speed 18 mph    
Visibility 10 miles    
Events      
Averages and records for this station are not official NWS values.
T = Trace of Precipitation, MM = Missing Value Source: NWS Daily Summary

Daily Weather History Graph

Daily Weather History Graph

Search for Another Location

Airport or City:

Trip Planner

Search our weather history database for the weather conditions in past years. The results will help you decide how hot, cold, wet, or windy it might be!

Date:

Astronomy

Apr. 29, 2013 Rise Set
Actual Time 6:22 AM CDT 8:18 PM CDT
Civil Twilight 5:53 AM CDT 8:48 PM CDT
Nautical Twilight 5:16 AM CDT 9:24 PM CDT
Astronomical Twilight 4:37 AM CDT 10:04 PM CDT
Moon No Moon Rise 9:43 AM CDT (4/29)
Length of Visible Light 14h 55m
Length of Day
13h 55m
Waning Gibbous, 80% of the Moon is Illuminated
Apr 29
Waning Gibbous
May 2
Last Quarter
May 9
New
May 17
First Quarter
May 24
Full

Hourly Weather History & Observations

Time (CDT) Temp. Heat Index Dew Point Humidity Pressure Visibility Wind Dir Wind Speed Gust Speed Precip Events Conditions
12:15 AM 62.6 °F - 53.6 °F 72% 29.74 in 10.0 mi South 10.4 mph - N/A   Clear
12:35 AM 60.8 °F - 53.6 °F 77% 29.75 in 10.0 mi SSE 9.2 mph - N/A   Clear
12:55 AM 60.8 °F - 53.6 °F 77% 29.75 in 10.0 mi South 10.4 mph - N/A   Clear
1:15 AM 60.8 °F - 55.4 °F 82% 29.75 in 10.0 mi SSE 9.2 mph - N/A   Clear
1:35 AM 60.8 °F - 55.4 °F 82% 29.75 in 10.0 mi SSE 10.4 mph - N/A   Clear
1:55 AM 59.0 °F - 55.4 °F 88% 29.75 in 10.0 mi SSE 8.1 mph - N/A   Clear
2:15 AM 59.0 °F - 55.4 °F 88% 29.74 in 10.0 mi SSE 8.1 mph - N/A   Clear
2:35 AM 59.0 °F - 55.4 °F 88% 29.73 in 10.0 mi SSE 9.2 mph - N/A   Clear
2:55 AM 57.2 °F - 55.4 °F 94% 29.72 in 10.0 mi SSE 9.2 mph - N/A   Clear
3:15 AM 59.0 °F - 55.4 °F 88% 29.72 in 10.0 mi SSE 5.8 mph - N/A   Partly Cloudy
3:35 AM 59.0 °F - 55.4 °F 88% 29.71 in 10.0 mi SSE 9.2 mph - N/A   Partly Cloudy
3:55 AM 59.0 °F - 55.4 °F 88% 29.71 in 10.0 mi South 8.1 mph - N/A   Clear
4:15 AM 59.0 °F - 55.4 °F 88% 29.73 in 10.0 mi WSW 4.6 mph - N/A   Partly Cloudy
4:35 AM 60.8 °F - 57.2 °F 88% 29.73 in 10.0 mi SSW 6.9 mph - N/A   Scattered Clouds
4:55 AM 59.0 °F - 55.4 °F 88% 29.74 in 10.0 mi WSW 8.1 mph - N/A   Mostly Cloudy
5:15 AM 59.0 °F - 55.4 °F 88% 29.71 in 10.0 mi Calm Calm - N/A   Mostly Cloudy
5:35 AM 57.2 °F - 55.4 °F 94% 29.75 in 10.0 mi WNW 10.4 mph - N/A   Mostly Cloudy
5:55 AM 57.2 °F - 55.4 °F 94% 29.75 in 10.0 mi WSW 8.1 mph - N/A   Mostly Cloudy
6:15 AM 57.2 °F - 55.4 °F 94% 29.72 in 10.0 mi Calm Calm - N/A   Mostly Cloudy
6:35 AM 57.2 °F - 55.4 °F 94% 29.72 in 10.0 mi SSE 3.5 mph - N/A   Mostly Cloudy
6:55 AM 57.2 °F - 55.4 °F 94% 29.73 in 10.0 mi Calm Calm - N/A   Clear
7:15 AM 55.4 °F - 51.8 °F 88% 29.74 in 10.0 mi NW 5.8 mph - N/A   Clear
7:35 AM 55.4 °F - 50.0 °F 82% 29.73 in 10.0 mi NNW 6.9 mph - N/A   Clear
7:55 AM 55.4 °F - 50.0 °F 82% 29.75 in 10.0 mi NW 6.9 mph - N/A   Clear
8:15 AM 57.2 °F - 50.0 °F 77% 29.73 in 10.0 mi North 15.0 mph - N/A   Clear
8:35 AM 57.2 °F - 51.8 °F 82% 29.74 in 10.0 mi North 6.9 mph - N/A   Clear
8:55 AM 59.0 °F - 51.8 °F 77% 29.76 in 10.0 mi NNW 5.8 mph 13.8 mph N/A   Clear
9:15 AM 59.0 °F - 53.6 °F 82% 29.74 in 10.0 mi ENE 5.8 mph 11.5 mph N/A   Clear
9:35 AM 59.0 °F - 53.6 °F 82% 29.76 in 10.0 mi Calm Calm - N/A   Clear
9:55 AM 59.0 °F - 53.6 °F 82% 29.75 in 10.0 mi SE 5.8 mph - N/A   Clear
10:15 AM 60.8 °F - 53.6 °F 77% 29.74 in 10.0 mi Calm Calm - N/A   Clear
10:35 AM 60.8 °F - 53.6 °F 77% 29.73 in 10.0 mi NNE 6.9 mph - N/A   Clear
10:55 AM 60.8 °F - 53.6 °F 77% 29.73 in 10.0 mi NNE 3.5 mph - N/A   Clear
11:15 AM 64.4 °F - 55.4 °F 73% 29.72 in 10.0 mi Variable 4.6 mph - N/A   Clear
11:35 AM 66.2 °F - 55.4 °F 68% 29.72 in 10.0 mi Variable 6.9 mph 13.8 mph N/A   Clear
11:55 AM 66.2 °F - 55.4 °F 68% 29.71 in 10.0 mi ESE 4.6 mph - N/A   Clear
12:15 PM 69.8 °F - 57.2 °F 64% 29.71 in 10.0 mi Variable 4.6 mph - N/A   Clear
12:35 PM 71.6 °F - 57.2 °F 60% 29.70 in 10.0 mi ENE 5.8 mph - N/A   Clear
12:55 PM 73.4 °F - 57.2 °F 57% 29.68 in 10.0 mi Variable 4.6 mph - N/A   Clear
1:15 PM 75.2 °F - 57.2 °F 53% 29.68 in 10.0 mi SW 4.6 mph - N/A   Clear
1:35 PM 77.0 °F - 55.4 °F 47% 29.67 in 10.0 mi SSW 4.6 mph 11.5 mph N/A   Clear
1:55 PM 77.0 °F - 55.4 °F 47% 29.66 in 10.0 mi South 9.2 mph - N/A   Clear
2:15 PM 78.8 °F - 55.4 °F 44% 29.66 in 10.0 mi Variable 6.9 mph 13.8 mph N/A   Clear
2:35 PM 78.8 °F - 55.4 °F 44% 29.63 in 10.0 mi Calm Calm - N/A   Clear
2:55 PM 80.6 °F 80.8 °F 57.2 °F 45% 29.63 in 10.0 mi Variable 4.6 mph - N/A   Clear
3:15 PM 78.8 °F - 55.4 °F 44% 29.63 in 10.0 mi Variable 4.6 mph 12.7 mph N/A   Clear
3:35 PM 80.6 °F 80.5 °F 55.4 °F 42% 29.62 in 10.0 mi SW 8.1 mph - N/A   Clear
3:55 PM 80.6 °F 80.3 °F 53.6 °F 39% 29.60 in 10.0 mi South 10.4 mph 16.1 mph N/A   Clear
4:15 PM 82.4 °F 81.4 °F 53.6 °F 37% 29.60 in 10.0 mi SW 12.7 mph 18.4 mph N/A   Clear
4:35 PM 84.2 °F - 50.0 °F 30% 29.59 in 10.0 mi SW 13.8 mph - N/A   Clear
4:55 PM 82.4 °F - 48.2 °F 30% 29.59 in 10.0 mi South 11.5 mph 18.4 mph N/A   Clear
5:15 PM 82.4 °F - 48.2 °F 30% 29.59 in 10.0 mi SSW 9.2 mph 17.3 mph N/A   Clear
5:35 PM 82.4 °F - 50.0 °F 32% 29.58 in 10.0 mi SW 10.4 mph 17.3 mph N/A   Clear
5:55 PM 82.4 °F - 48.2 °F 30% 29.57 in 10.0 mi South 8.1 mph 15.0 mph N/A   Clear
6:15 PM 82.4 °F - 48.2 °F 30% 29.56 in 10.0 mi South 11.5 mph - N/A   Clear
6:35 PM 82.4 °F - 50.0 °F 32% 29.55 in 10.0 mi SSW 9.2 mph - N/A   Clear
6:55 PM 82.4 °F - 51.8 °F 35% 29.55 in 10.0 mi South 10.4 mph - N/A   Clear
7:15 PM 80.6 °F - 50.0 °F 34% 29.55 in 10.0 mi South 10.4 mph 16.1 mph N/A   Clear
7:35 PM 78.8 °F - 51.8 °F 39% 29.55 in 10.0 mi South 6.9 mph - N/A   Clear
7:55 PM 78.8 °F - 51.8 °F 39% 29.54 in 10.0 mi South 3.5 mph - N/A   Clear
8:15 PM 77.0 °F - 51.8 °F 41% 29.54 in 10.0 mi SE 3.5 mph - N/A   Clear
8:35 PM 77.0 °F - 51.8 °F 41% 29.54 in 10.0 mi Calm Calm - N/A   Clear
8:55 PM 77.0 °F - 51.8 °F 41% 29.54 in 10.0 mi Calm Calm - N/A   Clear
9:15 PM 77.0 °F - 51.8 °F 41% 29.55 in 10.0 mi South 3.5 mph - N/A   Clear
9:35 PM 73.4 °F - 51.8 °F 47% 29.55 in 10.0 mi SE 4.6 mph - N/A   Scattered Clouds
9:55 PM 71.6 °F - 53.6 °F 53% 29.55 in 10.0 mi SSE 5.8 mph - N/A   Scattered Clouds
10:35 PM 69.8 °F - 55.4 °F 60% 29.55 in 10.0 mi South 8.1 mph - N/A   Scattered Clouds
10:55 PM 71.6 °F - 55.4 °F 57% 29.54 in 10.0 mi South 9.2 mph - N/A   Partly Cloudy
11:15 PM 71.6 °F - 55.4 °F 57% 29.54 in 10.0 mi South 10.4 mph - N/A   Partly Cloudy
11:35 PM 73.4 °F - 55.4 °F 53% 29.53 in 10.0 mi South 10.4 mph - N/A   Mostly Cloudy
11:55 PM 75.2 °F - 57.2 °F 53% 29.52 in 10.0 mi South 15.0 mph - N/A   Overcast